Location: Newark
(34.9500°N, 139.9667°E)
Time: 06:25:29
(UTC+00:00)

Vanguard 2 Rocket - Pass Details

Date: 15 December 2019
Orbit: 554 x 3326 km, 32.9° (Epoch: 19 January)

Event Time Altitude Azimuth Distance (km) Brightness Sun altitude
Rises 02:17:54 0° 179° (S) 7,047 12.6 31.7°
Reaches altitude 10° 02:28:08 10° 154° (SSE) 6,270 12.3 31.8°
Maximum altitude 02:34:11 12° 136° (SE) 6,073 11.9 31.8°
Drops below altitude 10° 02:40:03 10° 118° (ESE) 6,121 11.5 31.8°
Sets 02:49:21 0° 93° (E) 6,702 11.3 31.7°
